Location: Poughquag
(41.6090°N, 73.6820°W)
Time: 08:02:50
(UTC-05:00)

STRAND 1 - Pass Details

Date: 01 December 2023
Orbit: 766 x 778 km, 98.4° (Epoch: 24 February)

Event Time Altitude Azimuth Distance (km) Brightness Sun altitude
Rises 04:50:17 0° 141° (SE) 3,237 ? -24.0°
Reaches altitude 10° 04:52:44 10° 133° (SE) 2,313 ? -23.5°
Maximum altitude 04:57:20 35° 68° (ENE) 1,222 ? -22.7°
Drops below altitude 10° 05:01:57 10° 4° (N) 2,320 ? -21.8°
Sets 05:04:25 0° 356° (N) 3,249 ? -21.4°
